Probability
0 0 0 0 0 0 0 0 0 0 0 0 0 0 0 0 0 0 3 0 0 3 6 3 6 0 0 6 0 0 0 3 3 3 0 6 3 3 3 3 3 3 3
0 0 0 0 0 0 0 0 0 0 0 0 0 0 0 0 0 0 0 3 6 10 10 3 3 6 6 3 0 0 0 0 0 3 0 0 3 3 3 3 3 3 3
0 0 0 0 0 0 0 0 0 0 0 0 0 0 0 0 0 0 0 3 6 6 10 6 0 3 3 10 3 0 3 0 3 3 0 0 0 3 3 3 3 3 0
0 0 0 0 0 0 0 0 0 0 0 0 0 0 0 0 0 0 0 0 3 3 3 3 0 3 0 3 3 0 0 3 3 0 0 0 0 0 3 3 3 3 3
0 0 0 0 0 0 0 0 0 0 0 0 0 0 0 0 0 0 0 0 3 3 3 3 0 0 0 0 0 0 0 0 0 0 0 0 0 3 3 3 3 3 3
0 0 0 0 0 0 0 0 0 0 0 0 0 0 0 0 0 0 0 3 3 3 3 3 0 0 0 0 0 0 0 0 0 0 0 0 0 3 3 3 3 3 0
0 0 0 0 0 0 0 0 0 0 0 0 0 3 3 0 0 0 0 3 3 0 0 0 0 0 0 0 0 0 0 0 0 0 0 0 0 0 3 3 3 3 3
0 0 0 0 0 3 3 0 0 0 0 0 0 3 3 0 0 0 0 3 3 0 0 0 0 0 0 0 0 0 0 0 0 0 0 0 0 0 0 3 3 3 0
0 0 0 0 0 0 0 0 3 0 0 0 0 3 3 0 0 0 0 0 0 0 0 0 0 0 0 0 0 0 0 0 0 0 0 0 0 0 0 0 0 3 0
3 3 0 0 0 0 0 0 0 0 0 0 0 0 0 0 0 0 0 0 0 0 0 0 0 0 0 0 0 0 0 0 0 0 0 0 0 0 0 0 3 0 0
3 3 3 0 0 0 0 0 3 0 0 0 0 0 0 0 0 0 0 0 0 0 0 0 0 0 0 0 0 0 0 0 0 0 0 0 0 0 0 0 0 0 0
3 6 6 3 3 0 3 0 0 0 0 0 0 0 0 0 0 0 0 0 0 0 0 0 0 0 0 0 0 0 0 0 0 0 0 0 0 0 0 0 0 0 0
6 10 10 6 6 3 3 3 0 0 0 0 0 0 0 0 0 0 0 0 0 0 0 0 0 0 0 0 0 0 0 0 0 0 0 0 0 0 0 0 0 0 0
3 6 3 3 6 6 3 3 3 0 0 0 0 0 0 0 0 0 0 0 0 0 0 0 0 0 0 0 0 0 0 0 0 0 0 0 0 0 0 0 0 0 0
3 3 3 3 3 3 3 3 3 0 0 0 0 0 0 0 0 0 0 0 0 0 0 0 0 0 0 0 0 0 0 0 0 0 0 0 0 0 0 0 0 0 0
3 3 3 3 3 3 3 3 0 0 0 0 0 0 0 0 0 0 0 0 0 0 0 0 0 0 0 0 0 0 0 0 0 0 0 0 0 0 0 0 0 0 0
0 0 0 0 0 0 3 0 0 0 0 0 0 0 0 0 0 0 0 0 0 0 0 0 0 0 0 0 0 0 0 0 0 0 0 0 0 0 0 0 0 0 0
0 0 0 3 3 0 0 0 0 0 0 0 0 0 0 0 0 0 0 0 0 0 0 0 0 0 0 0 0 0 0 0 0 0 0 0 0 0 0 0 0 0 0
0 0 0 3 3 3 3 0 0 0 0 0 0 0 0 0 0 0 0 0 0 0 0 0 0 0 0 0 0 0 0 0 0 0 0 0 0 0 0 0 0 0 0
0 0 0 3 3 0 0 0 0 0 0 0 0 0 0 0 0 0 0 0 0 0 0 0 0 0 0 0 0 0 0 0 0 0 0 0 0 0 0 0 0 0 0
0 0 0 0 0 0 0 0 0 0 0 0 0 0 0 0 0 0 0 0 0 0 0 0 0 0 0 0 0 0 0 0 0 0 0 0 0 0 0 0 0 0 0
0 0 0 0 0 0 0 0 0 0 0 0 0 0 0 0 0 0 0 0 0 0 0 0 0 0 0 0 0 0 0 0 0 0 0 0 0 0 0 0 0 0 0
0 0 0 0 0 0 0 0 0 0 0 0 0 0 0 0 0 0 0 0 0 0 0 0 0 0 0 0 0 0 0 0 0 0 0 0 0 0 0 0 0 0 0
0 0 0 0 0 0 0 0 0 0 0 0 0 0 0 0 0 0 0 0 0 0 0 0 0 0 0 0 0 0 0 0 0 0 0 0 0 0 0 0 0 0 0
0 0 0 0 0 0 0 0 0 0 0 0 0 0 0 0 0 0 0 0 0 0 0 0 0 0 0 0 0 0 0 0 0 0 0 0 0 0 0 0 0 0 0
0 0 0 0 0 0 0 0 0 0 0 0 0 0 0 0 0 0 0 0 0 0 0 0 0 0 0 0 0 0 0 0 0 0 0 0 0 0 0 0 0 0 0
Height
5853 5855 5857 5859 5860 5862 5864 5865 5867 5868 5869 5870 5870 5871 5871 5871 5871 5871 5871 5871 5871 5870 5870 5870 5869 5868 5867 5867 5866 5865 5865 5865 5864 5864 5863 5863 5862 5861 5860 5859 5857 5856 5855
5851 5853 5854 5856 5858 5860 5862 5863 5865 5866 5867 5868 5869 5870 5870 5870 5871 5871 5871 5870 5870 5870 5869 5869 5868 5867 5866 5865 5865 5864 5864 5863 5863 5863 5862 5861 5861 5860 5858 5857 5856 5854 5853
5848 5850 5852 5854 5856 5858 5860 5861 5863 5864 5866 5867 5868 5869 5869 5869 5870 5870 5870 5870 5869 5869 5868 5868 5867 5866 5865 5864 5863 5863 5863 5862 5862 5861 5861 5860 5859 5858 5857 5855 5854 5853 5851
5846 5848 5850 5852 5854 5856 5858 5859 5861 5862 5864 5865 5866 5867 5867 5868 5868 5868 5868 5868 5868 5867 5867 5866 5865 5865 5864 5863 5862 5862 5861 5861 5860 5860 5859 5858 5857 5856 5854 5853 5852 5850 5848
5844 5846 5848 5850 5852 5854 5856 5857 5859 5860 5862 5863 5864 5865 5866 5866 5867 5867 5867 5866 5866 5866 5865 5864 5864 5863 5862 5861 5861 5860 5859 5859 5858 5857 5857 5856 5854 5853 5852 5850 5848 5847 5845
5841 5843 5846 5848 5850 5852 5854 5855 5857 5858 5860 5861 5862 5863 5864 5864 5865 5865 5865 5864 5864 5864 5863 5862 5862 5861 5860 5859 5858 5858 5857 5856 5856 5855 5854 5852 5851 5850 5848 5846 5845 5843 5841
5839 5841 5843 5846 5848 5850 5852 5853 5854 5856 5857 5859 5860 5861 5861 5862 5862 5862 5862 5862 5862 5861 5861 5860 5859 5858 5857 5857 5856 5855 5854 5853 5852 5851 5850 5848 5847 5845 5844 5842 5840 5838 5836
5836 5838 5841 5843 5845 5847 5849 5851 5852 5853 5855 5856 5857 5858 5858 5859 5859 5860 5860 5859 5859 5858 5858 5857 5856 5855 5855 5854 5853 5852 5851 5850 5848 5847 5846 5844 5843 5841 5839 5837 5835 5832 5830
5833 5835 5838 5840 5842 5844 5846 5848 5849 5851 5852 5853 5854 5855 5855 5856 5856 5856 5856 5856 5856 5855 5855 5854 5853 5852 5852 5850 5849 5848 5847 5846 5844 5843 5841 5839 5838 5835 5833 5831 5829 5826 5824
5829 5832 5834 5836 5839 5841 5842 5844 5846 5847 5848 5849 5850 5851 5851 5852 5852 5853 5852 5852 5852 5851 5851 5850 5849 5849 5848 5847 5845 5844 5843 5841 5840 5838 5836 5834 5832 5830 5827 5825 5822 5820 5817
5825 5828 5830 5832 5834 5836 5838 5840 5842 5843 5844 5845 5846 5847 5847 5848 5848 5848 5848 5848 5848 5847 5847 5846 5845 5844 5843 5842 5841 5839 5838 5836 5834 5832 5830 5828 5826 5823 5821 5818 5816 5813 5810
5821 5823 5826 5828 5830 5832 5834 5836 5837 5839 5840 5841 5842 5843 5843 5844 5844 5844 5844 5844 5844 5843 5842 5842 5841 5840 5839 5837 5836 5834 5832 5830 5828 5826 5824 5822 5819 5816 5814 5811 5808 5805 5802
5817 5819 5822 5824 5826 5828 5829 5831 5833 5834 5835 5837 5838 5839 5839 5840 5840 5840 5840 5840 5839 5839 5838 5837 5836 5835 5834 5832 5830 5828 5826 5824 5822 5820 5817 5814 5812 5809 5806 5803 5799 5796 5793
5813 5815 5817 5820 5822 5823 5825 5827 5828 5830 5831 5832 5833 5834 5835 5835 5835 5835 5835 5835 5834 5834 5833 5832 5831 5829 5828 5826 5824 5822 5820 5818 5815 5812 5809 5807 5804 5800 5797 5794 5790 5786 5783
5808 5811 5813 5815 5817 5819 5820 5822 5824 5825 5826 5827 5828 5829 5830 5830 5830 5830 5830 5830 5829 5828 5827 5826 5825 5824 5822 5820 5818 5816 5813 5810 5808 5805 5802 5798 5795 5792 5788 5784 5780 5776 5772
5804 5806 5808 5810 5812 5814 5815 5817 5818 5820 5821 5822 5823 5824 5824 5825 5825 5825 5825 5824 5823 5823 5822 5820 5819 5817 5815 5813 5811 5808 5806 5803 5799 5796 5793 5789 5786 5782 5778 5774 5770 5765 5761
5799 5801 5803 5805 5807 5809 5810 5812 5813 5815 5816 5817 5818 5818 5819 5819 5819 5819 5819 5818 5817 5816 5815 5814 5812 5810 5808 5806 5803 5800 5797 5794 5791 5787 5784 5780 5776 5772 5768 5763 5759 5754 5749
5795 5797 5798 5800 5802 5804 5805 5806 5808 5809 5810 5811 5812 5812 5813 5813 5813 5813 5813 5812 5811 5810 5808 5806 5804 5802 5800 5797 5794 5791 5788 5785 5781 5777 5773 5769 5765 5761 5756 5752 5747 5742 5736
5790 5792 5794 5795 5797 5799 5800 5801 5802 5803 5804 5805 5805 5806 5806 5806 5806 5806 5806 5805 5804 5802 5800 5798 5796 5794 5791 5788 5785 5782 5779 5775 5771 5767 5763 5759 5754 5749 5744 5739 5734 5729 5723
5785 5787 5789 5791 5792 5793 5794 5796 5796 5797 5798 5799 5799 5799 5800 5800 5799 5799 5798 5797 5796 5794 5792 5790 5787 5785 5782 5779 5776 5772 5769 5765 5760 5756 5752 5747 5742 5737 5732 5726 5721 5715 5710
5780 5782 5784 5785 5787 5788 5789 5790 5791 5791 5792 5792 5792 5793 5793 5793 5792 5792 5790 5789 5787 5785 5783 5781 5778 5775 5772 5769 5766 5762 5758 5754 5749 5745 5740 5735 5730 5725 5719 5713 5707 5702 5696
5775 5777 5778 5780 5781 5782 5783 5784 5785 5785 5786 5786 5786 5786 5786 5785 5785 5784 5782 5781 5779 5777 5774 5772 5769 5766 5762 5759 5755 5751 5747 5743 5738 5734 5729 5723 5718 5712 5706 5700 5694 5688 5681
5769 5771 5772 5774 5775 5776 5777 5778 5778 5779 5779 5779 5779 5779 5778 5778 5777 5775 5774 5772 5770 5767 5765 5762 5759 5756 5752 5748 5745 5740 5736 5732 5727 5722 5716 5711 5705 5699 5693 5686 5680 5673 5667
5763 5765 5766 5767 5768 5769 5770 5771 5771 5772 5772 5772 5772 5771 5770 5769 5768 5767 5765 5763 5760 5758 5755 5752 5749 5745 5741 5738 5733 5729 5724 5719 5714 5709 5704 5698 5691 5685 5679 5672 5665 5658 5652
5756 5758 5759 5760 5761 5762 5763 5763 5764 5764 5764 5764 5764 5763 5762 5760 5759 5757 5755 5753 5750 5748 5745 5742 5738 5734 5730 5726 5722 5717 5713 5707 5702 5696 5690 5684 5677 5671 5664 5657 5650 5644 5637
5749 5750 5752 5753 5754 5755 5755 5756 5756 5756 5756 5756 5755 5754 5753 5752 5750 5748 5745 5743 5740 5737 5734 5731 5727 5723 5719 5715 5710 5705 5700 5695 5689 5683 5676 5670 5663 5657 5650 5643 5636 5629 5622
Wind_Speed
16 16 15 15 15 14 13 12 11 10 9 8 6 5 4 3 2 2 2 2 2 2 3 3 3 4 4 4 4 5 5 5 5 5 5 6 6 6 7 8 8 9 9
16 16 15 15 15 14 13 13 12 11 10 9 7 6 5 4 3 3 3 3 3 3 4 4 5 5 5 5 6 6 6 6 6 6 6 7 7 8 8 8 9 9 9
15 15 15 15 15 14 13 13 12 11 11 10 9 7 7 6 5 5 5 5 5 5 5 6 6 6 6 6 6 6 7 7 7 7 7 8 9 9 9 10 11 11 12
15 14 14 14 14 14 13 13 12 12 11 10 9 8 8 7 7 7 7 7 7 7 7 7 7 7 8 8 8 8 9 8 9 9 10 11 11 12 12 13 13 14 15
15 14 14 14 14 13 13 13 13 12 12 11 10 9 9 8 8 8 8 8 8 8 8 8 9 9 9 9 10 10 10 10 11 12 12 13 13 14 14 15 16 16 17
15 15 15 15 14 14 13 12 12 12 12 11 11 10 10 10 9 9 9 9 9 9 9 9 10 10 10 10 11 11 12 12 13 14 14 15 16 16 17 18 18 19 20
15 15 16 15 14 14 13 13 13 13 12 12 12 11 11 11 11 11 11 11 11 11 11 11 11 11 11 11 11 12 13 13 14 15 16 17 18 18 19 20 21 21 22
15 16 17 16 15 14 14 14 13 13 13 13 13 13 12 12 12 12 12 13 12 12 13 13 12 12 12 12 13 13 14 15 16 16 17 18 19 21 22 23 23 24 24
16 16 17 17 16 15 14 14 14 14 14 14 13 13 13 13 13 13 13 13 13 13 13 13 13 12 13 14 14 15 15 16 17 18 19 20 21 22 23 24 24 25 25
17 18 18 18 17 17 17 16 15 16 15 15 14 14 14 14 14 14 13 13 13 14 14 14 14 14 15 16 17 17 18 18 19 20 21 22 23 24 25 25 26 26 27
18 18 18 18 17 18 18 17 17 16 16 16 16 15 15 15 15 14 14 14 14 14 15 15 16 16 17 17 18 19 20 21 22 23 24 25 25 26 26 27 27 28 29
18 19 19 18 17 17 17 18 18 17 17 16 15 15 14 14 15 15 14 14 15 15 15 16 16 17 18 19 20 21 22 23 24 25 25 26 27 28 28 29 30 31 32
18 19 19 18 18 17 17 17 18 17 17 16 16 16 15 15 15 16 16 15 16 16 16 17 18 19 20 20 21 22 23 24 26 26 27 28 29 30 31 32 33 34 35
19 19 19 19 18 18 17 17 17 17 17 17 17 17 16 16 16 17 16 17 16 17 18 18 19 20 21 22 23 24 25 26 27 28 29 30 31 32 33 34 35 36 37
19 19 20 20 19 19 18 18 18 18 18 18 18 18 17 17 17 17 17 18 18 19 19 20 21 22 22 24 25 26 27 28 29 31 32 32 33 35 36 37 37 38 40
19 20 20 20 19 19 19 19 19 19 19 19 19 18 18 18 18 19 19 20 20 20 21 22 23 24 25 26 27 28 29 30 32 33 33 34 35 36 38 39 40 41 42
18 19 20 20 20 19 19 19 19 19 18 18 19 19 19 19 20 20 20 20 21 22 23 24 25 26 27 28 29 30 31 33 34 34 35 36 37 38 39 40 42 43 44
18 18 18 19 19 19 19 18 19 19 19 19 19 20 20 20 20 20 21 21 22 24 25 26 27 28 29 30 31 32 33 34 35 36 37 38 39 40 41 43 44 45 46
18 17 17 18 18 18 18 18 18 19 19 20 20 20 20 20 21 21 22 23 25 26 27 28 29 30 31 32 33 34 35 36 37 38 39 40 41 42 44 45 46 46 47
18 18 18 18 18 18 18 19 19 20 20 20 20 20 20 21 21 22 23 25 26 27 28 29 30 31 32 33 34 35 36 37 38 39 40 42 43 44 45 46 47 47 48
19 20 19 19 19 19 19 19 19 20 20 20 20 21 21 22 22 24 25 26 27 28 29 30 31 32 34 35 35 36 37 38 39 40 41 43 44 45 47 48 48 49 50
20 21 20 20 20 19 19 19 20 21 21 21 21 22 23 24 24 25 26 27 28 29 31 32 33 34 35 36 37 38 38 39 41 42 43 45 46 47 48 49 50 51 52
21 21 21 21 20 20 20 21 21 22 22 22 23 24 24 25 26 27 28 29 30 31 33 33 34 35 37 38 38 39 40 41 43 44 45 46 47 48 49 50 51 52 52
22 22 21 22 22 22 22 22 22 23 23 23 24 24 25 26 27 28 30 31 32 33 34 34 36 37 38 39 40 40 41 43 44 45 47 48 49 50 51 52 52 53 53
23 23 23 23 23 23 23 23 24 24 24 24 25 25 26 27 28 30 31 32 33 34 35 36 37 38 40 41 41 42 43 45 46 47 48 49 50 51 52 52 53 53 53
25 25 24 24 24 24 24 25 25 25 25 26 27 27 28 29 30 32 33 34 34 35 36 37 39 40 41 41 42 43 45 46 47 48 50 50 51 52 52 53 53 53 53
Wind_Direction
218 220 220 218 217 217 217 217 215 215 216 218 226 233 236 241 243 236 231 239 254 271 279 284 287 293 299 298 296 291 290 294 296 298 299 305 309 309 302 300 300 301 303
220 219 220 219 217 216 215 215 215 216 218 221 224 228 233 238 245 248 256 258 271 283 291 296 296 299 296 294 296 295 291 292 296 298 299 303 309 310 304 304 302 300 302
218 218 218 217 214 214 213 213 216 216 218 222 226 232 237 243 249 254 259 270 279 282 286 290 292 295 295 292 288 288 291 292 293 298 301 304 307 308 306 304 303 300 301
217 216 214 212 210 211 212 215 217 218 220 223 228 235 239 245 250 256 263 270 276 280 285 289 292 295 295 290 287 286 287 288 289 293 295 297 301 302 300 301 302 300 299
218 217 214 213 211 212 214 216 220 223 226 228 232 237 241 247 254 260 266 271 275 277 281 285 290 293 294 289 287 287 287 286 288 292 293 295 297 298 299 301 302 301 300
218 215 214 213 211 214 215 219 223 224 228 233 236 239 245 250 255 259 265 272 276 279 281 284 288 291 294 291 287 286 285 285 289 291 292 293 296 297 298 299 300 300 300
218 216 215 216 216 219 222 225 226 228 233 236 239 243 249 253 257 260 264 271 276 280 281 282 284 287 289 289 288 290 290 289 291 293 294 293 295 296 297 298 298 298 299
222 218 217 218 220 223 226 231 231 234 238 240 243 247 250 255 260 264 268 272 276 279 280 280 283 285 285 287 288 290 290 290 292 294 295 296 297 298 298 297 297 297 297
224 222 220 220 223 226 230 234 237 239 242 243 245 249 253 256 261 266 269 271 274 278 280 280 282 284 284 285 288 290 290 290 291 292 295 297 298 298 298 298 298 298 298
224 224 223 224 226 230 232 236 240 244 245 245 246 250 254 257 261 266 269 272 274 276 278 279 280 282 285 286 288 289 290 291 292 293 294 295 297 297 298 298 298 298 298
226 226 226 226 229 231 234 237 242 246 248 248 248 251 254 256 262 265 269 273 276 277 278 279 280 283 285 286 287 289 291 292 294 295 296 297 297 298 298 298 299 298 299
229 228 226 226 230 234 237 240 242 246 246 245 248 251 254 256 261 264 270 272 275 277 278 278 280 282 285 287 289 291 293 294 295 297 297 297 298 297 297 297 298 298 299
230 228 227 229 233 237 238 240 242 243 244 247 250 252 255 258 260 263 268 273 275 276 277 278 281 284 287 289 292 293 294 295 296 297 297 298 298 299 299 299 299 298 299
230 227 227 230 234 237 238 239 240 243 244 246 250 253 256 259 262 263 267 271 273 279 281 282 284 287 288 290 292 294 295 295 296 297 298 298 299 299 300 299 299 299 300
231 229 229 231 237 239 242 244 244 245 247 249 251 254 257 259 263 266 270 273 276 280 283 285 287 289 290 291 293 294 295 296 296 296 297 298 298 299 300 300 300 300 300
231 230 231 233 238 241 244 244 244 247 249 250 252 253 256 260 264 267 271 275 278 280 283 287 288 290 292 293 294 294 295 296 296 297 297 298 299 299 300 300 301 301 301
233 233 234 236 238 242 242 242 244 246 248 251 253 254 256 260 264 268 272 275 278 280 283 287 288 290 291 293 294 295 296 297 297 297 298 299 299 300 300 301 301 301 301
233 235 237 237 239 242 242 243 244 247 250 252 253 255 258 261 265 269 272 275 279 281 284 286 288 289 290 292 293 295 296 298 298 298 299 299 300 301 301 301 301 301 301
233 235 237 238 240 242 243 244 246 249 251 253 255 258 261 264 268 272 275 278 281 283 286 287 289 290 292 293 294 295 297 298 299 299 300 300 301 301 302 302 302 302 302
236 236 237 239 241 243 244 246 248 250 253 255 257 260 264 268 271 275 278 280 282 284 287 289 290 292 294 295 296 297 298 298 299 300 301 302 302 302 303 304 303 303 303
239 239 239 241 244 248 249 249 251 254 256 258 259 262 265 269 273 277 280 283 285 287 289 291 292 294 295 297 298 298 298 299 300 301 302 303 303 303 304 304 304 303 303
242 242 243 245 249 253 255 256 257 258 260 263 265 267 270 273 276 280 282 284 287 289 291 292 293 294 296 297 298 299 299 300 300 301 302 303 304 304 304 304 304 304 304
245 247 247 249 251 254 256 258 260 260 262 265 268 270 273 277 279 282 284 286 288 290 292 294 295 296 297 298 299 299 299 300 300 302 303 304 304 304 304 304 304 304 304
246 248 252 254 254 255 257 259 260 262 266 269 271 274 277 279 281 284 286 289 291 292 293 294 296 297 298 299 300 300 300 301 302 303 304 304 304 305 305 305 305 305 305
247 250 253 255 255 257 259 260 262 265 269 272 276 278 280 281 284 286 289 290 291 292 293 294 295 297 298 299 299 300 301 302 303 304 305 305 305 305 306 306 306 305 305
250 252 254 255 257 259 261 263 265 267 270 273 276 278 281 284 286 288 289 290 291 292 293 294 296 297 299 299 300 301 302 303 304 305 305 306 306 306 306 306 306 306 306